Regional Weather Roundup
Issued by NWS Upton, NY

Current Version | Previous Version | Text Only | Print | Product List | Glossary On
Versions: 1 2 3 4 5 6 7 8 9 10 11 12 13 14 15 16 17 18 19 20 21 22 23 24 25 26 27 28 29 30 31 32 33 34 35 36 37 38 39 40 41 42 43 44 45 46 47 48 49 50
000 ASUS41 KOKX 300105 RWROKX REGIONAL WEATHER ROUNDUP NATIONAL WEATHER SERVICE NEW YORK NY 800 PM EST THU JAN 29 2015 NOTE: "FAIR" INDICATES FEW OR NO CLOUDS BELOW 12,000 FEET WITH NO SIGNIFICANT WEATHER AND/OR OBSTRUCTIONS TO VISIBILITY. NYZ071-072-176-178-NJZ106-104-300200- NEW YORK CITY METRO AREA CITY SKY/WX TMP DP RH WIND PRES REMARKS CENTRAL PARK CLOUDY 35 25 66 S12G18 30.10F WCI 27 LAGUARDIA APRT CLOUDY 35 27 72 S8 30.09F WCI 29 KENNEDY INTL CLOUDY 36 28 73 S15 30.10F WCI 27 NEWARK/LIBERTY CLOUDY 32 20 61 S3 30.10F BRNX BOT. GARD N/A N/A N/A N/A E3 30.09S TETERBORO CLOUDY 32 22 66 S8 30.08F WCI 25 $$ NYZ177-179-078>081-300200- LONG ISLAND NEW YORK CITY SKY/WX TMP DP RH WIND PRES REMARKS FARMINGDALE CLOUDY 31 24 75 CALM 30.10F ISLIP CLOUDY 32 26 78 SE3 30.09F SHIRLEY CLOUDY 31 24 75 CALM 30.12F WESTHAMPTON CLOUDY 30 22 72 CALM 30.12F MONTAUK POINT N/A 35 27 72 VRB3 30.13F $$ NYZ052-065-067-300200- HUDSON VALLEY CITY SKY/WX TMP DP RH WIND PRES REMARKS WHITE PLAINS CLOUDY 28 22 78 SE7 30.06F WCI 21 NEWBURGH CLOUDY 28 21 74 S12 30.06F WCI 18 MONTGOMERY CLOUDY 29 17 61 S5 30.04F WCI 24 POUGHKEEPSIE CLOUDY 31 17 56 SE6 30.06F WCI 25 ALBANY CLOUDY 29 8 41 S9 30.01F WCI 20 $$ NJZ001-105-106-008-010-013-015-019>022-104-300200- NEW JERSEY CITY SKY/WX TMP DP RH WIND PRES REMARKS NEWARK/LIBERTY CLOUDY 32 20 61 S3 30.10F TETERBORO CLOUDY 32 22 66 S8 30.08F WCI 25 CALDWELL CLOUDY 31 15 52 S8 30.09F WCI 23 MORRISTOWN CLOUDY 30 18 59 S6 30.09F WCI 24 SOMERVILLE CLOUDY 31 20 63 CALM 30.06F SUSSEX CLOUDY 28 15 58 SW5 30.04F WCI 23 ANDOVER N/A 27 17 66 S5 30.04F WCI 22 TRENTON CLOUDY 31 18 58 S8 30.08F WCI 23 MILLVILLE CLOUDY 34 24 67 SW8 30.10S WCI 27 ATLANTIC CITY CLOUDY 35 25 66 S10 30.09F WCI 27 WRIGHTSTOWN CLOUDY 31 24 76 SW6 30.07F WCI 25 TOMS RIVER CLOUDY 30 27 86 E3 30.07F BELMAR CLOUDY 32 21 64 SW7 30.08F WCI 26 $$ PAZ047>061-062-071-300200- EASTERN PENNSYLVANIA CITY SKY/WX TMP DP RH WIND PRES REMARKS PHILADELPHIA FLURRIES 34 20 56 S8 30.09F WCI 27 ALLENTOWN LGT SNOW 28 20 71 SW9 30.05F WCI 19 SCRANTON LGT SNOW 25 18 74 MISG 29.95F $$ CTZ002-004>006-009-010-012-RIZ004-006-007-MAZ004-011-015-300200- SOUTHERN NEW ENGLAND IN CT CITY SKY/WX TMP DP RH WIND PRES REMARKS BRADLEY INTL CLOUDY 30 19 63 S9 30.09F WCI 22 HARTFORD CLOUDY 29 21 72 S6 30.11F WCI 23 DANBURY CLOUDY 28 17 63 CALM 30.08F WTRBRY/OXFORD CLOUDY 27 16 63 S6 30.08F WCI 20 BRIDGEPORT CLOUDY 31 25 78 SE7 30.11F WCI 24 MERIDEN CLOUDY 29 21 72 CALM 30.11F NEW HAVEN CLOUDY 32 25 75 SE5 30.11F WCI 27 CHESTER FAIR 30 27 86 SE3 30.10F GROTON CLOUDY 32 27 81 S10 30.12F WCI 24 WILLIMANTIC CLOUDY 29 20 69 CALM 30.12F IN RI CITY SKY/WX TMP DP RH WIND PRES REMARKS PROVIDENCE CLOUDY 28 17 63 CALM 30.15F BLOCK ISLAND CLOUDY 34 23 64 S9 30.11F WCI 26 WESTERLY CLOUDY 33 25 72 S7 30.13F WCI 27 IN MA CITY SKY/WX TMP DP RH WIND PRES REMARKS BOSTON MOCLDY 28 21 75 S6 30.15F WCI 22 WORCESTER CLOUDY 26 12 55 S8 30.06F WCI 18 WESTFIELD CLOUDY 29 10 45 S5 30.08F WCI 24 PROVINCETOWN CLEAR 19 18 93 S3 30.16S NANTUCKET PTCLDY 28 25 88 W6 30.16F WCI 22 $$ ANZ330-335-338-340-345-350-353-355-300200- COASTAL MARINE OBSERVATIONS STATION/POSITION TIME SKY/WX TEMP WIND PRES VSBY WAVE AIR SEA DIR/SP/G HT/PER (UTC) (F) (DEG/KT/KT) (MB) (MI) (FT/S) NY HARB ENTRANCE 0100 38 39 190/ 16/ 19 1018.5 3/11 4S FIRE IS 0000 37 N/A 2/10 20S FIRE ISLAND 0000 42 1020.4 2/10 23SW MTP 0100 N/A 2/10 HUDSON CANYON NOT AVBL EXECUTION ROCKS 0100 31 33 90/ 6/ 8 N/A WESTERN LI SOUND 0100 31 100/ 6/ 8 N/A 0 CENTRAL LI SOUND 0000 32 35 120/ 6/ 8 N/A 0 EASTERN LI SOUND NOT AVBL ROBBINS REEF 0100 33 170/ 8/ 10 1017.7 $$ >>>>>>>>>>>>>>>>>>>>>>>>>>>> KEY <<<<<<<<<<<<<<<<<<<<<<<<<<< > < > SKY/WX - SKY CONDITION/PRESENT WEATHER < > TMP - TEMPERATURE IN FAHRENHEIT < > DP - DEWPOINT IN FAHRENHEIT < > RH - RELATIVE HUMIDITY IN PERCENT < > WIND - DIRECTION AND SPEED IN MPH < > PRES - MEAN SEA LEVEL PRESSURE IN INCHES OF HG < > WCI - WIND CHILL INDEX < > VSB - VISIBILITY IN MILES < > HX - HEAT INDEX < > TC - TEMPERATURE IN CELSIUS < > VRB - VARIABLE WIND DIRECTION < > < >>>>>>>>>>>>>>>>>>>>>>>>>>>> KEY <<<<<<<<<<<<<<<<<<<<<<<<<<<

USA.gov is the U.S. government's official web portal to all federal, state and local government web resources and services.